Home   Weather   Germantown   Past weeks

Flag for USA Past Weather in Germantown, Maryland, USA — Yesterday and Last 2 Weeks

61 °F


Feels Like: 61 °F
Forecast: 41 / 58 °F
Wind: 12 mph from Northwest

Location: Frederick Municipal Airport

Current Time: Oct 28, 2016 at 5:51:24 PM

Latest Report: Oct 28, 2016 at 4:47 PM

Visibility: 10 mi

Pressure: 30.24 "Hg

Humidity: 39%

Dew Point: 36 °F

Location of GermantownLocation

Past Weather in Germantown — Graph


Germantown Temperature Yesterday

Maximum temperature yesterday: 59 °F (at 4:47 PM)
Minimum temperature yesterday: 43 °F (at 12:35 AM)
Average temperature yesterday: 51 °F

High & Low Weather Summary for the Past Weeks

High86 °F (Oct 18, 3:48 PM)100% (Oct 14, 6:50 AM)30.52 "Hg (Oct 14, 6:50 AM)
Low30 °F (Oct 26, 6:47 AM)39% (Oct 24, 5:48 PM)29.61 "Hg (Oct 21, 3:50 PM)
Average59 °F72%30.15 "Hg
* Reported Oct 13 4:47 PM — Oct 28 4:47 PM, Germantown, Weather by CustomWeather, © 2016

Note: Actual official high and low records may vary slightly from our data, if they occured in-between our weather recording intervals... More about our weather records


Germantown Weather History for the Previous 24 Hours

Scroll right to see more
Time TempWeatherWind HumidityBarometerVisibility
4:47 PM
Fri, Oct 28
61 °FSunny.12 mph39%30.24 "Hg10 mi
3:47 PM61 °FSunny.9 mph39%30.23 "Hg10 mi
2:47 PM59 °FSunny.17 mph42%30.25 "Hg10 mi
1:46 PM57 °FSunny.10 mph48%30.27 "Hg10 mi
12:47 PM57 °FSunny.15 mph94%30.29 "Hg10 mi
11:46 AM55 °FSunny.13 mph55%30.30 "Hg10 mi
10:50 AM54 °FBroken clouds.13 mph58%30.31 "Hg10 mi
9:47 AM52 °FScattered clouds.16 mph62%30.30 "Hg10 mi
8:47 AM50 °FPartly sunny.12 mph67%30.29 "Hg10 mi
7:47 AM50 °FPartly sunny.9 mph76%30.26 "Hg10 mi
6:50 AM50 °FMostly cloudy.7 mph76%30.23 "Hg10 mi
6:10 AM50 °FPassing clouds.7 mph71%30.23 "Hg10 mi
6:00 AM48 °FPassing clouds.7 mph76%30.22 "Hg10 mi
5:40 AM48 °FPassing clouds.8 mph76%30.21 "Hg10 mi
5:20 AM50 °FMostly cloudy.6 mph71%30.21 "Hg10 mi
5:00 AM50 °FOvercast.6 mph71%30.21 "Hg10 mi
4:40 AM50 °FPassing clouds.9 mph71%30.20 "Hg10 mi
4:20 AM50 °FPassing clouds.8 mph71%30.19 "Hg10 mi
4:00 AM50 °FClear.15 mph71%30.18 "Hg10 mi
3:40 AM50 °FClear.8 mph71%30.19 "Hg10 mi
3:20 AM50 °FClear.13 mph71%30.19 "Hg10 mi
3:00 AM50 °FClear.14 mph71%30.18 "Hg10 mi
2:40 AM50 °FClear.15 mph71%30.18 "Hg10 mi
2:20 AM50 °FClear.12 mph76%30.18 "Hg10 mi
2:00 AM52 °FClear.12 mph72%30.17 "Hg10 mi
1:40 AM50 °FClear.7 mph82%30.16 "Hg10 mi
1:20 AM50 °FPassing clouds.No wind82%30.16 "Hg10 mi
1:00 AM52 °FClear.5 mph77%30.15 "Hg10 mi
12:40 AM54 °FClear.9 mph77%30.15 "Hg10 mi
12:20 AM54 °FClear.8 mph88%30.14 "Hg10 mi
12:00 AM55 °FClear.8 mph88%30.13 "Hg10 mi
11:40 PM
Thu, Oct 27
55 °FPassing clouds.8 mph82%30.13 "Hg10 mi
11:20 PM55 °FPassing clouds.5 mph94%30.13 "Hg10 mi
11:00 PM54 °FPassing clouds.6 mph100%30.12 "Hg10 mi
10:40 PM54 °FFog.5 mph100%30.10 "Hg5 mi
10:20 PM52 °FPassing clouds.No wind100%30.10 "Hg7 mi
10:00 PM54 °FFog.3 mph100%30.10 "Hg5 mi
9:40 PM54 °FMostly cloudy.No wind100%30.09 "Hg7 mi
9:20 PM52 °FThundershowers. Fog.7 mph100%30.09 "Hg2 mi
9:00 PM52 °FThundershowers. Fog.No wind100%30.07 "Hg1 mi
8:40 PM52 °FFog.No wind100%30.07 "Hg1 mi
8:20 PM52 °FFog.No wind100%30.07 "Hg1 mi
6:47 PM57 °FPartly cloudy.No wind100%30.07 "Hg6 mi
5:47 PM59 °FBroken clouds.6 mph100%30.07 "Hg7 mi
Weather by CustomWeather, © 2016

See weather overviewHow to use our weather pages